Weather History for St. James, MN

Change the Weather History Date:

Thursday, October 3, 2013

  Actual Average Record
Temperature  
Mean Temperature 62 °F -  
Max Temperature 66 °F 68 °F 89 °F (1992)
Min Temperature 59 °F 42 °F 25 °F (1989)
Degree Days  
Heating Degree Days 2    
Growing Degree Days 12 (Base 50)    
Moisture  
Dew Point 59 °F    
Average Humidity 91    
Maximum Humidity 100    
Minimum Humidity 83    
Precipitation  
Precipitation 0.14 in - - ()
Sea Level Pressure  
Sea Level Pressure 29.85 in    
Wind  
Wind Speed 4 mph (North)    
Max Wind Speed 10 mph    
Max Gust Speed -    
Visibility 5 miles    
Events Fog , Rain , Thunderstorm    
Averages and records for this station are not official NWS values.
T = Trace of Precipitation, MM = Missing Value Source: NWS Daily Summary

Daily Weather History Graph

Daily Weather History Graph

Search for Another Location

Airport:

Trip Planner

Search our weather history database for the weather conditions in past years. The results will help you decide how hot, cold, wet, or windy it might be!

Date:

Astronomy

Oct. 03, 2013 Rise Set
Actual Time 7:18 AM CDT 6:54 PM CDT
Civil Twilight 6:49 AM CDT 7:23 PM CDT
Nautical Twilight 6:16 AM CDT 7:57 PM CDT
Astronomical Twilight 5:42 AM CDT 8:30 PM CDT
Moon 5:51 AM CDT (10/3) 6:04 PM CDT (10/3)
Length of Visible Light 12h 33m
Length of Day
11h 36m
Waning Crescent, 2% of the Moon is Illuminated
Oct 3
Waning Crescent
Oct 4
New
Oct 11
First Quarter
Oct 18
Full
Oct 26
Last Quarter

Hourly Weather History & Observations

Time (CDT) Temp. Dew Point Humidity Pressure Visibility Wind Dir Wind Speed Gust Speed Precip Events Conditions
12:15 AM 62.6 °F 60.8 °F 94% 29.84 in 10.0 mi SE 5.8 mph - N/A   Clear
12:35 AM 62.6 °F 60.8 °F 94% 29.85 in 10.0 mi SE 5.8 mph - N/A   Scattered Clouds
12:55 AM 62.6 °F 60.8 °F 94% 29.84 in 10.0 mi ESE 4.6 mph - N/A   Scattered Clouds
1:15 AM 62.6 °F 60.8 °F 94% 29.83 in 10.0 mi ESE 3.5 mph - N/A   Clear
1:35 AM 60.8 °F 59.0 °F 94% 29.84 in 10.0 mi Calm Calm - N/A   Clear
1:55 AM 60.8 °F 59.0 °F 94% 29.85 in 10.0 mi Calm Calm - N/A   Mostly Cloudy
2:15 AM 62.6 °F 60.8 °F 94% 29.85 in 10.0 mi Calm Calm - N/A   Overcast
2:34 AM 62.6 °F 60.8 °F 94% 29.85 in 10.0 mi Calm Calm - N/A   Overcast
2:55 AM 62.6 °F 60.8 °F 94% 29.85 in 7.0 mi Calm Calm - N/A   Overcast
3:15 AM 62.6 °F 60.8 °F 94% 29.85 in 7.0 mi Calm Calm - N/A   Overcast
3:34 AM 62.6 °F 60.8 °F 94% 29.85 in 5.0 mi Calm Calm - N/A   Overcast
3:55 AM 60.8 °F 60.8 °F 100% 29.84 in 1.0 mi NNW 4.6 mph - N/A   Overcast
4:15 AM 60.8 °F 59.0 °F 94% 29.85 in 0.5 mi WNW 4.6 mph - N/A Fog Fog
4:35 AM 60.8 °F 57.2 °F 88% 29.85 in 0.5 mi NW 4.6 mph - N/A Fog Fog
4:54 AM 60.8 °F 57.2 °F 88% 29.85 in 0.2 mi Calm Calm - N/A Fog Fog
5:15 AM 60.8 °F 57.2 °F 88% 29.84 in 0.5 mi NNW 5.8 mph - N/A Fog Fog
5:35 AM 59.0 °F 57.2 °F 94% 29.85 in 0.5 mi Calm Calm - N/A Fog Fog
5:55 AM 60.8 °F 57.2 °F 88% 29.85 in 0.5 mi Calm Calm - N/A Fog , Thunderstorm Fog
6:15 AM 60.8 °F 57.2 °F 88% 29.85 in 0.5 mi Calm Calm - N/A Fog Fog
6:35 AM 60.8 °F 57.2 °F 88% 29.87 in 0.2 mi WNW 3.5 mph - N/A Fog Fog
6:55 AM 60.8 °F 57.2 °F 88% 29.86 in 0.5 mi Calm Calm - N/A Fog Fog
7:15 AM 60.8 °F 57.2 °F 88% 29.85 in 0.5 mi Calm Calm - N/A Fog Fog
7:35 AM 60.8 °F 59.0 °F 94% 29.83 in 1.0 mi ENE 5.8 mph - N/A Rain Light Rain
7:55 AM 60.8 °F 59.0 °F 94% 29.83 in 3.0 mi ENE 9.2 mph - N/A   Overcast
8:15 AM 60.8 °F 59.0 °F 94% 29.83 in 3.0 mi ENE 5.8 mph - N/A   Drizzle
8:34 AM 60.8 °F 59.0 °F 94% 29.82 in 3.0 mi NNE 4.6 mph - N/A   Overcast
8:55 AM 60.8 °F 59.0 °F 94% 29.83 in 3.0 mi East 4.6 mph - 0.01 in Rain Light Rain
9:15 AM 60.8 °F 59.0 °F 94% 29.83 in 3.0 mi NNE 3.5 mph - 0.02 in Rain Rain
9:34 AM 60.8 °F 59.0 °F 94% 29.84 in 4.0 mi Calm Calm - 0.03 in Rain Rain
9:55 AM 60.8 °F 59.0 °F 94% 29.84 in 3.0 mi North 3.5 mph - 0.06 in Rain Rain
10:15 AM 60.8 °F 59.0 °F 94% 29.82 in 2.5 mi North 10.4 mph - 0.01 in Rain Light Rain
10:35 AM 60.8 °F 59.0 °F 94% 29.83 in 4.0 mi North 5.8 mph - 0.01 in Rain Light Rain
10:55 AM 60.8 °F 59.0 °F 94% 29.83 in 7.0 mi North 5.8 mph - 0.01 in   Overcast
11:15 AM 62.6 °F 60.8 °F 94% 29.83 in 10.0 mi North 6.9 mph - N/A   Overcast
11:35 AM 62.6 °F 60.8 °F 94% 29.83 in 10.0 mi NE 3.5 mph - N/A   Overcast
11:55 AM 64.4 °F 60.8 °F 88% 29.83 in 10.0 mi NNE 3.5 mph - N/A   Overcast
12:15 PM 64.4 °F 60.8 °F 88% 29.83 in 10.0 mi Calm Calm - N/A   Overcast
12:35 PM 64.4 °F 60.8 °F 88% 29.83 in 10.0 mi Calm Calm - N/A   Overcast
12:55 PM 64.4 °F 60.8 °F 88% 29.82 in 10.0 mi Calm Calm - N/A   Overcast
1:15 PM 66.2 °F 60.8 °F 83% 29.82 in 10.0 mi North 4.6 mph - N/A   Overcast
1:35 PM 64.4 °F 60.8 °F 88% 29.82 in 10.0 mi North 3.5 mph - N/A   Overcast
1:54 PM 64.4 °F 60.8 °F 88% 29.82 in 10.0 mi NW 9.2 mph - N/A   Overcast
2:15 PM 64.4 °F 60.8 °F 88% 29.83 in 10.0 mi NW 5.8 mph - N/A   Overcast
2:35 PM 64.4 °F 60.8 °F 88% 29.83 in 5.0 mi NW 6.9 mph - N/A   Drizzle
2:54 PM 64.4 °F 60.8 °F 88% 29.84 in 4.0 mi NW 3.5 mph - N/A Rain Rain
3:15 PM 64.4 °F 60.8 °F 88% 29.85 in 5.0 mi NW 5.8 mph - 0.04 in Rain Rain
3:35 PM 62.6 °F 60.8 °F 94% 29.85 in 4.0 mi NW 5.8 mph - 0.06 in Rain Rain
3:55 PM 62.6 °F 60.8 °F 94% 29.84 in 2.5 mi NW 8.1 mph - 0.06 in   Drizzle
4:15 PM 62.6 °F 60.8 °F 94% 29.85 in 3.0 mi NNW 8.1 mph - N/A   Light Drizzle
4:35 PM 62.6 °F 60.8 °F 94% 29.85 in 4.0 mi North 4.6 mph - N/A   Overcast
4:55 PM 62.6 °F 60.8 °F 94% 29.86 in 5.0 mi NNE 3.5 mph - N/A   Overcast
5:15 PM 62.6 °F 60.8 °F 94% 29.86 in 4.0 mi North 3.5 mph - N/A   Overcast
5:35 PM 62.6 °F 59.0 °F 88% 29.85 in 5.0 mi North 6.9 mph - N/A   Overcast
5:55 PM 62.6 °F 59.0 °F 88% 29.87 in 5.0 mi NNW 6.9 mph - N/A Rain Light Rain
6:15 PM 60.8 °F 59.0 °F 94% 29.86 in 5.0 mi North 3.5 mph - N/A   Overcast
6:35 PM 60.8 °F 59.0 °F 94% 29.84 in 4.0 mi NE 6.9 mph - N/A Rain Light Rain
6:55 PM 60.8 °F 59.0 °F 94% 29.85 in 7.0 mi NNE 5.8 mph - N/A   Overcast
7:15 PM 60.8 °F 59.0 °F 94% 29.86 in 7.0 mi NNE 4.6 mph - N/A   Overcast
7:35 PM 60.8 °F 59.0 °F 94% 29.86 in 7.0 mi NNE 3.5 mph - N/A   Overcast
7:55 PM 60.8 °F 57.2 °F 88% 29.86 in 5.0 mi NNE 5.8 mph - N/A   Overcast
8:15 PM 60.8 °F 57.2 °F 88% 29.88 in 5.0 mi Calm Calm - N/A   Overcast
8:35 PM 60.8 °F 57.2 °F 88% 29.88 in 4.0 mi Calm Calm - N/A   Overcast
8:55 PM 60.8 °F 57.2 °F 88% 29.89 in 4.0 mi North 5.8 mph - N/A   Overcast
9:15 PM 60.8 °F 57.2 °F 88% 29.90 in 4.0 mi North 3.5 mph - N/A   Overcast
9:35 PM 60.8 °F 57.2 °F 88% 29.90 in 4.0 mi North 3.5 mph - N/A   Overcast
9:55 PM 60.8 °F 57.2 °F 88% 29.91 in 3.0 mi North 5.8 mph - N/A   Overcast
10:15 PM 60.8 °F 57.2 °F 88% 29.92 in 4.0 mi North 5.8 mph - N/A   Overcast
10:35 PM 59.0 °F 55.4 °F 88% 29.92 in 4.0 mi North 6.9 mph - N/A   Overcast
11:35 PM 59.0 °F 55.4 °F 88% 29.93 in 4.0 mi North 6.9 mph - N/A   Overcast
11:55 PM 59.0 °F 55.4 °F 88% 29.92 in 3.0 mi North 6.9 mph - N/A   Overcast